[[{"header":{"parameterUnit":"m.s-1","parameterCategory":1,"la1":30.2991,"la2":30.254,"lo1":-89.0895,"lo2":-89.0444,"dy":0.0017,"dx":0.0017,"nx":28,"ny":28,"refTime":"2025-06-20T03:00:00:Z","depth":0,"parameterNumber":2,"parameterNumberName":"U-component_of_WINDS"},"data":[0,0,0,0,0,0,0,0,0,0,0,0,0,0,0,0,0,0,0,0,0,0,0,0,0,0,0,0,0,0,0,0,0,0,0,0,0,0,0,0,0,0,0,0,0,0,0,0,0,0,0,0,0,0,0,0,0,0,-0.0233,-0.0234,0,-0.0323,-0.0324,-0.0325,-0.0345,-0.0344,-0.0344,-0.0343,-0.0434,-0.0437,-0.044,0,0,0,0,0,0,0,0,0,0,0,0,0,-0.0076,-0.0078,-0.0233,-0.0234,-0.0235,-0.0323,-0.0324,-0.0325,-0.0345,-0.0344,-0.0344,-0.0343,-0.0433,-0.0436,-0.044,0,0,0,0,0,0,0,0,0,0,0,0,0,-0.0153,-0.0079,-0.0232,-0.0255,-0.0258,-0.0323,-0.0324,-0.0326,-0.0345,-0.0344,-0.0343,-0.0342,-0.0432,-0.0436,-0.044,-0.0488,0,0,-0.0454,-0.0456,0,0,0,0,0,0,0,0,-0.0148,-0.0158,-0.0251,-0.0254,-0.0257,-0.0322,-0.0302,-0.038,-0.0346,-0.0312,-0.0343,-0.0342,-0.0397,-0.0404,-0.0423,-0.0492,-0.0496,-0.0455,-0.0457,-0.0459,-0.0461,0,0,0,0,0,0,0,-0.0143,-0.0154,-0.0268,-0.0252,-0.0256,-0.0261,-0.0271,-0.0317,-0.0359,-0.0315,-0.0317,-0.0327,-0.0399,-0.0419,-0.0426,-0.0497,-0.0455,-0.0459,-0.0461,-0.0463,-0.0608,-0.0609,0,0,0,0,0,0,-0.0134,-0.015,-0.0265,-0.0271,-0.0199,-0.0264,-0.0275,-0.0302,-0.0359,-0.0366,-0.0328,-0.0328,-0.0412,-0.042,-0.0429,-0.0487,-0.0459,-0.0464,-0.0466,-0.0607,-0.0608,-0.061,0,0,0,0,0,0,-0.013,-0.0144,-0.0262,-0.0211,-0.0226,-0.0268,-0.0298,-0.0304,-0.0325,-0.0368,-0.0376,-0.0341,-0.0411,-0.0423,-0.0473,-0.0491,-0.0466,-0.047,-0.0606,-0.0608,-0.0609,-0.0605,0,0,0,0,0,0,-0.0126,-0.0142,-0.0161,-0.0211,-0.0229,-0.0305,-0.0299,-0.0307,-0.0333,-0.0333,-0.0383,-0.039,-0.0412,-0.0466,-0.0477,-0.0497,-0.0473,-0.0604,-0.0607,-0.0609,-0.0603,-0.0606,-0.0608,0,0,0,0,0,-0.012,-0.0156,-0.0162,-0.0176,-0.0253,-0.0306,-0.0316,-0.034,-0.0334,-0.0353,-0.0381,-0.0388,-0.0487,-0.0471,-0.0484,-0.0505,-0.0603,-0.0606,-0.0608,-0.0602,-0.0606,-0.0608,0,0,0,0,0,0,-0.0106,-0.0163,-0.017,-0.0224,-0.026,-0.0309,-0.0333,-0.0343,-0.0381,-0.038,-0.0409,-0.042,-0.0468,-0.0492,-0.0473,-0.0553,-0.0545,-0.055,-0.0536,-0.0539,-0.0542,-0.0535,-0.0477,0,0,0,0,0,-0.0109,-0.0148,-0.0195,-0.0238,-0.0255,-0.0291,-0.0315,-0.0331,-0.0369,-0.0384,-0.0416,-0.0453,-0.0492,-0.0517,-0.0556,-0.0607,-0.0618,-0.0628,-0.063,-0.0632,-0.0636,-0.0665,-0.0669,-0.0618,-0.0618,-0.0618,0,0,-0.0116,-0.0152,-0.0174,-0.0236,-0.0265,-0.0304,-0.0304,-0.0345,-0.0373,-0.0391,-0.044,-0.0464,-0.0507,-0.0558,-0.0582,-0.0579,-0.0653,-0.0636,-0.0637,-0.064,-0.0668,-0.0673,-0.0677,-0.062,-0.062,-0.0619,0,0,-0.0148,-0.0179,-0.0218,-0.0248,-0.0294,-0.0317,-0.0327,-0.0375,-0.0392,-0.0442,-0.0456,-0.049,-0.0557,-0.0587,-0.0611,-0.0654,-0.0662,-0.0666,-0.0678,-0.0706,-0.071,-0.0714,-0.0728,-0.0733,-0.067,-0.067,-0.067,0,-0.015,-0.0209,-0.0236,-0.0277,-0.0303,-0.0321,-0.036,-0.0388,-0.0443,-0.0461,-0.0457,-0.0542,-0.0572,-0.063,-0.064,-0.066,-0.067,-0.066,-0.0707,-0.0711,-0.0715,-0.073,-0.0735,-0.067,-0.067,-0.067,-0.067,0,-0.021,-0.025,-0.0276,-0.033,-0.0359,-0.0398,-0.0431,-0.0457,-0.0471,-0.0495,-0.0546,-0.0583,-0.0629,-0.0644,-0.0658,-0.0704,-0.07,-0.0702,-0.0694,-0.072,-0.0734,-0.0739,-0.067,-0.067,-0.067,-0.067,0,0,-0.0234,-0.0303,-0.0312,-0.0336,-0.0388,-0.042,-0.046,-0.0506,-0.0527,-0.0565,-0.0599,-0.0656,-0.0658,-0.0685,-0.0702,-0.0726,-0.0757,-0.0724,-0.0726,-0.0728,-0.081,-0.0808,-0.0814,-0.0764,-0.0765,-0.0766,-0.0806,0,-0.0271,-0.0344,-0.037,-0.0429,-0.0467,-0.0485,-0.052,-0.0555,-0.0579,-0.0614,-0.064,-0.0679,-0.0679,-0.0695,-0.072,-0.0748,-0.0774,-0.0746,-0.0794,-0.0796,-0.0782,-0.0821,-0.0819,-0.0855,-0.0812,-0.0813,-0.0813,0,-0.0324,-0.0363,-0.0427,-0.0474,-0.0491,-0.0522,-0.0566,-0.0599,-0.064,-0.0655,-0.0686,-0.0701,-0.0743,-0.0734,-0.0792,-0.0772,-0.0794,-0.081,-0.0812,-0.0817,-0.0805,-0.0826,-0.0868,-0.0873,-0.0822,-0.0822,-0.0821,0,-0.0334,-0.0403,-0.045,-0.0471,-0.0527,-0.0548,-0.0573,-0.0612,-0.0638,-0.0677,-0.0694,-0.0736,-0.0759,-0.0792,-0.0818,-0.0809,-0.0874,-0.0867,-0.0887,-0.0886,-0.0899,-0.0897,-0.0943,-0.0914,-0.0914,-0.0914,-0.0914,0,-0.0373,-0.0411,-0.0455,-0.0484,-0.0527,-0.0556,-0.0597,-0.0623,-0.0658,-0.0692,-0.071,-0.0741,-0.0775,-0.081,-0.0831,-0.0876,-0.0886,-0.0899,-0.0904,-0.0897,-0.0895,-0.0911,-0.0908,-0.0916,-0.0915,-0.0915,-0.0915,0,-0.0391,-0.0422,-0.0474,-0.0524,-0.0537,-0.0567,-0.0609,-0.0637,-0.0662,-0.0704,-0.0716,-0.0754,-0.0797,-0.0827,-0.0881,-0.0896,-0.0943,-0.0948,-0.0929,-0.0932,-0.095,-0.0947,-0.1007,-0.1016,-0.0981,-0.0982,-0.0982,0,-0.0412,-0.0442,-0.0495,-0.0519,-0.0544,-0.0582,-0.0609,-0.0639,-0.0666,-0.0715,-0.0737,-0.0781,-0.0817,-0.0884,-0.0917,-0.0959,-0.0964,-0.0982,-0.0971,-0.0962,-0.0964,-0.0961,-0.0964,-0.0984,-0.0984,-0.0984,-0.0984,0,-0.0447,-0.0462,-0.05,-0.0544,-0.0575,-0.0611,-0.0647,-0.0666,-0.0702,-0.0731,-0.0775,-0.0804,-0.086,-0.0903,-0.0948,-0.0973,-0.0984,-0.0988,-0.0995,-0.0987,-0.0974,-0.0981,-0.0933,-0.0986,-0.0986,-0.0986,-0.0986,-0.0985,-0.0467,-0.0494,-0.0536,-0.0578,-0.0608,-0.0642,-0.0671,-0.0699,-0.0737,-0.0785,-0.0801,-0.0846,-0.0886,-0.0948,-0.0973,-0.1008,-0.1007,-0.1017,-0.102,-0.1021,-0.1021,-0.097,-0.1017,-0.1017,-0.1017,-0.1017,-0.1017,0,-0.0502,-0.053,-0.0569,-0.0619,-0.0652,-0.0661,-0.0701,-0.0728,-0.0768,-0.0804,-0.084,-0.0891,-0.0933,-0.0969,-0.1012,-0.1034,-0.104,-0.1044,-0.1042,-0.1047,-0.1019,-0.1009,-0.1038,-0.1038,-0.1038,-0.1038,-0.1038,-0.1038,-0.0524,-0.0571,-0.059,-0.0651,-0.0679,-0.0724,-0.0746,-0.0777,-0.0806,-0.0862,-0.0897,-0.0921,-0.0957,-0.1003,-0.1042,-0.1052,-0.1066,-0.1069,-0.1079,-0.1052,-0.1049,-0.1047,-0.1037,-0.1072,-0.1072,-0.1104,-0.1105,-0.1105]},{"header":{"parameterUnit":"m.s-1","parameterCategory":1,"la1":30.2991,"la2":30.254,"lo1":-89.0895,"lo2":-89.0444,"dy":0.0017,"dx":0.0017,"nx":28,"ny":28,"refTime":"2025-06-20T03:00:00:Z","depth":0,"parameterNumber":3,"parameterNumberName":"V-component_of_WINDS"},"data":[0,0,0,0,0,0,0,0,0,0,0,0,0,0,0,0,0,0,0,0,0,0,0,0,0,0,0,0,0,0,0,0,0,0,0,0,0,0,0,0,0,0,0,0,0,0,0,0,0,0,0,0,0,0,0,0,0,0,-0.3624,-0.3624,0,-0.3621,-0.3621,-0.3621,-0.3593,-0.3593,-0.3592,-0.3591,-0.3588,-0.3589,-0.359,0,0,0,0,0,0,0,0,0,0,0,0,0,-0.3606,-0.3607,-0.3624,-0.3624,-0.3624,-0.3621,-0.3621,-0.3621,-0.3593,-0.3593,-0.3592,-0.3591,-0.3588,-0.3589,-0.359,0,0,0,0,0,0,0,0,0,0,0,0,0,-0.361,-0.3607,-0.3624,-0.361,-0.3608,-0.3621,-0.3621,-0.3621,-0.3594,-0.3593,-0.3592,-0.3591,-0.3588,-0.3589,-0.359,-0.3615,0,0,-0.3592,-0.3593,0,0,0,0,0,0,0,0,-0.361,-0.361,-0.3612,-0.3611,-0.3609,-0.3606,-0.3614,-0.3619,-0.3594,-0.3599,-0.3591,-0.359,-0.3595,-0.3595,-0.3597,-0.3615,-0.3615,-0.3592,-0.3593,-0.3593,-0.3593,0,0,0,0,0,0,0,-0.3609,-0.361,-0.3623,-0.3612,-0.361,-0.3604,-0.3603,-0.3615,-0.3603,-0.3599,-0.3597,-0.3597,-0.3594,-0.3596,-0.3597,-0.3615,-0.3592,-0.3593,-0.3594,-0.3594,-0.3656,-0.3657,0,0,0,0,0,0,-0.3611,-0.361,-0.3623,-0.3623,-0.3607,-0.3605,-0.3604,-0.3608,-0.3603,-0.3601,-0.3598,-0.3595,-0.3595,-0.3596,-0.3597,-0.3628,-0.3593,-0.3594,-0.3594,-0.3655,-0.3656,-0.3657,0,0,0,0,0,0,-0.3611,-0.3613,-0.3623,-0.3616,-0.3617,-0.3606,-0.3611,-0.3609,-0.3611,-0.3602,-0.36,-0.3602,-0.3595,-0.3595,-0.3611,-0.3627,-0.3594,-0.3595,-0.3653,-0.3655,-0.3657,-0.3689,0,0,0,0,0,0,-0.361,-0.3613,-0.3622,-0.3616,-0.3617,-0.3638,-0.3612,-0.361,-0.3612,-0.361,-0.3605,-0.3604,-0.3594,-0.361,-0.3612,-0.3628,-0.3596,-0.3652,-0.3654,-0.3656,-0.3687,-0.3692,-0.3696,0,0,0,0,0,-0.361,-0.3631,-0.3623,-0.3624,-0.3629,-0.3638,-0.3639,-0.3627,-0.3614,-0.3624,-0.3618,-0.3604,-0.3625,-0.3612,-0.3614,-0.363,-0.3651,-0.3653,-0.3656,-0.3685,-0.3691,-0.3696,0,0,0,0,0,0,-0.3639,-0.363,-0.3621,-0.3641,-0.3641,-0.3634,-0.3646,-0.3634,-0.3638,-0.3635,-0.362,-0.362,-0.3638,-0.3635,-0.3621,-0.3655,-0.3635,-0.3639,-0.3657,-0.3663,-0.3667,-0.3668,-0.3596,0,0,0,0,0,-0.3647,-0.3656,-0.3648,-0.3666,-0.3666,-0.3656,-0.366,-0.3651,-0.365,-0.365,-0.3646,-0.3646,-0.3652,-0.3657,-0.3663,-0.3686,-0.3685,-0.3698,-0.3703,-0.3707,-0.371,-0.3724,-0.373,-0.3666,-0.3666,-0.3666,0,0,-0.3665,-0.3662,-0.3668,-0.3672,-0.3671,-0.368,-0.3656,-0.3667,-0.3674,-0.3652,-0.3667,-0.3664,-0.3663,-0.3683,-0.3691,-0.3681,-0.3728,-0.371,-0.3713,-0.3714,-0.3727,-0.3733,-0.3739,-0.3667,-0.3667,-0.3667,0,0,-0.3703,-0.3701,-0.3716,-0.3716,-0.3715,-0.3708,-0.3712,-0.3707,-0.3704,-0.3719,-0.3703,-0.3711,-0.3722,-0.3723,-0.3725,-0.3764,-0.3751,-0.3766,-0.3791,-0.3805,-0.381,-0.3814,-0.383,-0.3835,-0.3769,-0.3769,-0.3769,0,-0.3726,-0.3739,-0.3726,-0.3738,-0.3741,-0.3721,-0.3738,-0.3738,-0.3738,-0.3741,-0.3729,-0.3744,-0.3742,-0.3763,-0.3773,-0.3774,-0.3779,-0.3767,-0.381,-0.3814,-0.3818,-0.3833,-0.3839,-0.3771,-0.3771,-0.377,-0.377,0,-0.3768,-0.3778,-0.379,-0.3792,-0.3796,-0.381,-0.38,-0.3805,-0.3796,-0.3791,-0.3807,-0.3803,-0.3809,-0.3813,-0.3803,-0.3833,-0.3826,-0.3813,-0.3793,-0.3827,-0.384,-0.3845,-0.3774,-0.3773,-0.3772,-0.3772,0,0,-0.3824,-0.3819,-0.3824,-0.3825,-0.3823,-0.383,-0.3843,-0.3849,-0.3855,-0.3856,-0.3868,-0.3878,-0.3866,-0.3868,-0.3858,-0.387,-0.3903,-0.3855,-0.3855,-0.3865,-0.3937,-0.3948,-0.3955,-0.3894,-0.3895,-0.3896,-0.3937,0,-0.3862,-0.3885,-0.3874,-0.3898,-0.3908,-0.389,-0.3902,-0.3902,-0.3897,-0.3905,-0.3899,-0.3908,-0.389,-0.3891,-0.3902,-0.3897,-0.3918,-0.3894,-0.3906,-0.3907,-0.3909,-0.3961,-0.3973,-0.4012,-0.3942,-0.3943,-0.3944,0,-0.3909,-0.3913,-0.3939,-0.3936,-0.3939,-0.395,-0.3955,-0.3962,-0.3962,-0.3958,-0.3961,-0.3949,-0.3963,-0.3942,-0.3961,-0.3945,-0.395,-0.3948,-0.3949,-0.3951,-0.3928,-0.3966,-0.4024,-0.4031,-0.3952,-0.3951,-0.395,0,-0.3949,-0.3961,-0.3978,-0.398,-0.3976,-0.3985,-0.3983,-0.3982,-0.3987,-0.3991,-0.3993,-0.3999,-0.4002,-0.4007,-0.3997,-0.3983,-0.4018,-0.3996,-0.4016,-0.4017,-0.4026,-0.4025,-0.4087,-0.4026,-0.4026,-0.4026,-0.4026,0,-0.3994,-0.4011,-0.3997,-0.4008,-0.4026,-0.4013,-0.4032,-0.4029,-0.4028,-0.4039,-0.4022,-0.4033,-0.4018,-0.4027,-0.402,-0.4038,-0.4039,-0.4036,-0.4035,-0.4039,-0.4039,-0.4043,-0.404,-0.4027,-0.4027,-0.4027,-0.4026,0,-0.4042,-0.4034,-0.4052,-0.4047,-0.4046,-0.406,-0.4057,-0.4067,-0.4061,-0.4074,-0.4077,-0.4068,-0.4078,-0.4068,-0.4077,-0.4072,-0.4096,-0.409,-0.4097,-0.4095,-0.4117,-0.4115,-0.4183,-0.4192,-0.4124,-0.4125,-0.4126,0,-0.4072,-0.4085,-0.4082,-0.4088,-0.4088,-0.4097,-0.4102,-0.4089,-0.4095,-0.4096,-0.4107,-0.4115,-0.4121,-0.4138,-0.4132,-0.4139,-0.4133,-0.4157,-0.4134,-0.4139,-0.4136,-0.4136,-0.4138,-0.4162,-0.4163,-0.4163,-0.4164,0,-0.4126,-0.4121,-0.4128,-0.4135,-0.4141,-0.4145,-0.4148,-0.4153,-0.4141,-0.4148,-0.4158,-0.4162,-0.4172,-0.4181,-0.4186,-0.4185,-0.4173,-0.4171,-0.4176,-0.4181,-0.4185,-0.4185,-0.4111,-0.4169,-0.4169,-0.4168,-0.4168,-0.4168,-0.4167,-0.4178,-0.4178,-0.4187,-0.4188,-0.4191,-0.4201,-0.4197,-0.4205,-0.4212,-0.4204,-0.4217,-0.4217,-0.4223,-0.4224,-0.4234,-0.4224,-0.4231,-0.4233,-0.4236,-0.424,-0.4183,-0.4234,-0.4234,-0.4234,-0.4234,-0.4234,0,-0.4221,-0.4221,-0.4229,-0.4234,-0.4241,-0.4229,-0.4231,-0.4239,-0.425,-0.4251,-0.4258,-0.427,-0.4279,-0.4274,-0.4282,-0.4291,-0.4285,-0.4293,-0.4293,-0.4294,-0.4247,-0.4243,-0.4298,-0.4298,-0.4298,-0.4298,-0.4298,-0.4298,-0.4251,-0.4269,-0.4265,-0.4284,-0.4283,-0.4295,-0.4298,-0.4302,-0.4303,-0.4317,-0.4325,-0.4321,-0.4321,-0.4328,-0.4336,-0.4335,-0.4339,-0.4349,-0.4346,-0.4303,-0.4297,-0.4291,-0.4287,-0.435,-0.435,-0.4392,-0.4392,-0.4393]}]]